Regional Weather Roundup
Issued by NWS Wakefield, VA

Home | Current Version | Previous Version | Graphics & Text | Print | Product List | Glossary On
Versions: 1 2 3 4 5 6 7 8 9 10 11 12 13 14 15 16 17 18 19 20 21 22 23 24 25 26 27 28 29 30 31 32 33 34 35 36 37 38 39 40 41 42 43 44 45 46 47 48 49 50
000
ASUS41 KAKQ 261414
RWRAKQ

REGIONAL WEATHER ROUNDUP
NATIONAL WEATHER SERVICE WAKEFIELD VA
1000 AM EDT THU MAR 26 2015

Note: "fair" indicates few or no clouds below 12,000 feet with no
significant weather and/or obstructions to visibility. * = Denotes
station may not report precipitation (e.g., rain,snow,etc.),
thunder or fog.

VAZ042-051-052>054-056-261500-
NORTHERN VIRGINIA

CITY           SKY/WX    TMP DP  RH WIND       PRES   REMARKS
WASH NATIONAL  CLOUDY    54  49  83 S6        29.93F
DULLES         CLOUDY    54  50  87 S8        29.90F
FORT BELVOIR   CLOUDY    52  48  87 CALM      29.90F
QUANTICO       LGT RAIN  50  46  86 CALM      29.92F FOG
FREDERICKSBRG* LGT RAIN  51  51  99 SE5       29.90F
STAFFORD*      HVY RAIN  51  32  48 CALM      29.95F
WARRENTON      HVY RAIN  55  55 100 S3        29.90F
CULPEPER*      DRIZZLE   54  52  94 S3        29.90F
MANASSAS*      CLOUDY    54  50  87 S6        29.91F
LEESBURG*      RAIN      54  50  87 CALM      29.90F
WINCHESTER     CLOUDY    54  46  76 S7        29.85F
FRONT ROYAL*   CLOUDY    59  52  77 S3        29.85F
LURAY*         CLOUDY    61  54  77 CALM      29.86F
$$

VAZ048-049-060>072-079>083-261500-
CENTRAL AND SOUTH CENTRAL VIRGINIA

CITY           SKY/WX    TMP DP  RH WIND       PRES   REMARKS
RICHMOND       CLOUDY    66  61  84 S21G26    29.92F
CHESTERFIELD*  CLOUDY    64  54  68 S7        29.94F
PETERSBURG*    CLOUDY    66  64  91 S9        29.94F
HANOVER        CLOUDY    52  51  97 S3        29.94F FOG
TAPPAHANNOCK*  PTSUNNY   56  53  89 CALM      29.94F FOG
QUINTON*       CLOUDY    64  61  88 S13G21    29.93F
CHARLOTTSVILLE CLOUDY    51  50  96 CALM      29.90F FOG
GORDONSVILLE*  CLOUDY    50  49  97 SW3       29.91F FOG
ORANGE*        DRIZZLE   54  52  94 S5        29.92F
LOUISA*        DRIZZLE   50  48  93 CALM      29.91S
BUMPASS*       CLOUDY    50  49  97 MISG      29.91F
FARMVILLE*     CLOUDY    53  53 100 CALM      29.92F FOG
CREWE*         CLOUDY    64  62  93 MISG      29.92F
FORT PICKETT*  CLOUDY    65  63  93 S17G23    29.93F
CHASE CITY*    CLOUDY    65  65 100 SW3       29.93F
CLARKSVILLE*   CLOUDY    63  63 100 S5        29.93F
SOUTH HILL*    CLOUDY    64  63  96 S8        29.99F
LAWRENCEVILLE* CLOUDY    65  63  95 S7        29.94F
EMPORIA*       CLOUDY    61  61 100 S5        29.97F
$$

VAZ088>098-261500-
SOUTHEAST VIRGINIA

CITY           SKY/WX    TMP DP  RH WIND       PRES   REMARKS
NORFOLK        PTSUNNY   69  58  67 S16G29    29.96F
VIRGINIA BEACH PTSUNNY   71  59  65 S17G28    29.96F
NORFOLK NAVAL  PTSUNNY   72  59  63 S12G23    29.96F
WEST POINT*    CLOUDY    67  62  86 SE9       29.95F
SALUDA*        PTSUNNY   65  60  85 S10G18    29.94F
NEWPORT NEWS   PTSUNNY   71  59  65 S18       29.96F
LANGLEY AFB    PTSUNNY   67  60  77 S13G21    29.94F
FORT EUSTIS    PTSUNNY   66  64  93 S9G17     29.94F
WILLIAMSBURG*  PTSUNNY   68  64  88 S13G21    29.96F
HR EXEC AP*    FAIR      68  61  77 S16G25    29.97F
FRANKLIN*      TSTM      64  61  90 S10       29.97F
WAKEFIELD      LGT RAIN  65  61  87 S9G18     29.96F FOG
$$

VAZ020-022-025-037-045-261500-
WEST CENTRAL AND SOUTHWEST VIRGINIA

CITY           SKY/WX    TMP DP  RH WIND       PRES   REMARKS
STAUNTON*      PTSUNNY   60  55  81 S7        29.90F
WAYNESBORO*    PTSUNNY   61  56  84 SW9       29.89F
HOT SPRINGS VA MOSUNNY   57  48  71 SW17G25   29.91F
LYNCHBURG      CLOUDY    51  51 100 SW6       29.94F FOG
DANVILLE       FOG       52  51  97 W5        29.96R VSB 1/4
SOUTH BOSTON*  CLOUDY    52  50  95 W5        29.95R
MARTINSVILLE   FOG       53  53 100 CALM      29.98F VSB 1
ROANOKE        CLOUDY    55  46  71 N3        29.95F
BLACKSBURG     MOSUNNY   62  52  71 SW5       29.96S
DUBLIN*        PTSUNNY   63  57  79 W6        29.93F
MARION*        CLOUDY    62  50  64 W15       29.95F
HILLSVILLE*    MOSUNNY   58  53  83 S12       29.94F
RICHLANDS*     FAIR      61  49  65 SW10      29.91F
WISE*          PTSUNNY   61  48  63 SW15      29.92F
ABINGDON*      PTSUNNY   64  55  70 W9        29.92F
$$

MDZ021>025-VAZ099-100-261500-
SOUTHERN MARYLAND AND THE DELMARVA PENINSULA

CITY           SKY/WX    TMP DP  RH WIND       PRES   REMARKS
PATUXENT RIVER LGT RAIN  50  48  93 SE9       29.92F FOG
BAY BRIDGE APT TSTM      50  46  87 SE5       29.92F
LEONARDTOWN    CLOUDY    55  54  94 S6        29.93F
DOVER          CLOUDY    59  59 100 S12       29.89F
GEORGETOWN     CLOUDY    61  58  90 S13       29.96F
EASTON         TSTM      55  55 100 S5G18     29.98F
CAMBRIDGE      CLOUDY    57  55  94 S13       29.91F
SALISBURY      CLOUDY   N/A N/A N/A S10       29.96F
OCEAN CITY     CLOUDY    49  47  93 S8        29.98F FOG
WALLOPS ISLAND CLOUDY    49  49 100 SW10      29.99F FOG
ACCOMACK*      CLOUDY    59  52  77 S12       29.98F
$$

NCZ012>017-030>032-261500-
NORTH CENTRAL AND EASTERN NORTH CAROLINA

CITY           SKY/WX    TMP DP  RH WIND       PRES   REMARKS
ROANOKE RAPIDS DRIZZLE   63  61  94 S5        29.96F
RALEIGH        CLOUDY    66  62  87 SW12      29.96S
ELIZABETH CITY CLOUDY    67  60  78 S10       30.00F
AHOSKIE*       LGT RAIN  65  62  89 SE14G21   29.96F
EDENTON*       CLOUDY    67  61  80 S15       29.99F
CURRITUCK*     CLOUDY    67  57  70 S8G21     30.01F
KILL DEVIL HLS CLOUDY    68  59  73 S8G20     30.01F
MANTEO         CLOUDY    63  57  82 S14G20    30.03F
CAPE HATTERAS  CLOUDY    67  59  75 S21       30.03F
TARBORO*       RAIN      64  62  93 CALM      29.97S
GOLDSBORO      RAIN      66  64  94 SW7       29.94S FOG
WASHINGTON     RAIN      67  62  84 S13G18    29.98F
GREENVILLE     RAIN      66  64  94 S14       29.98F
NEW BERN       CLOUDY    72  63  73 S18G26    29.99S
WILMINGTON     CLOUDY    69  63  81 S14G22    29.97S
$$

VAZ048-261500-
ELSEWHERE

CITY           SKY/WX    TMP DP  RH WIND       PRES   REMARKS
HARRISBURG PA  CLOUDY    41  35  79 CALM      29.89F HAZE
BALTIMORE      LGT RAIN  52  46  82 CALM      29.90F FOG
ANNAPOLIS      LGT RAIN  44  41  89 SE9       29.91F FOG
ANDREWS AFB      N/A     55  55  99 S9        29.90F
PHILADELPHIA   CLOUDY    49  44  83 CALM      29.93F
HENDERSON NC   CLOUDY    65  61  88 S8        29.94F
GREENSBORO     CLOUDY    58  57  97 SW8       29.94F FOG
ROCKY MOUNT    LGT RAIN  65  64  97 S6        29.96F FOG
$$

VAZ100-261500-
MARINE

STATION/POSITION TIME  TEMP    WIND        PRES    WAVE   SWELL
                       AIR SEA DIR/SP/G            HT/PER HT/PER
                 (UTC) (F)     (DEG/KT/KT) (MB)    (FT/S) (FT/S)
BRANDYWINE LGT   1300   51 40  190/ 15/ 16 1015.1F
CAPE MAY NJ      1300   50 41  150/  9/ 12 1014.9F
LEWES DE         1300   60 40  210/  8/ 11 1014.9F
15NM E FENWICK I 1350   44 39              1015.3F   4/ 6
OCEAN-CITY-INLET 1300   44 41  210/  9/ 10 1015.9
WACHAPREAGUE VA  1300   49 49  210/  5/  6 1016.1F
THOMAS POINT MD  1400                        N/A
COVE POINT MD    1300   43     190/  9/ 10 1014.4F
SOLOMONS ISLAND  1300      41                N/A
BISHOPS HEAD MD  1300   47 45  160/  9/ 10 1014.5F
PINEY POINT MD   1312          140/  5/  5   N/A
CAMBRIDGE MD     1300   53 42  170/  4/  7 1014.5F
LEWISETTA VA     1300   48 44              1014.5F
RAPPAHANNOCK LGT 1300          170/ 13/ 14 1015.7F
STINGRAY PT      1400   51 43  170/ 10/ 12   N/A     1/ 3
YORK RVR RNG VA  1300   56     190/ 12/ 13 1014.7F
YORKTOWN VA      1300   64 46  190/ 10/ 17 1014.6F
DOMINION TERM VA 1300   61     190/ 14/ 18 1015.4F
KIPTOPEKE VA     1300      50  170/ 10/ 10   N/A
CHES BAY BRIDGE  1300   63 45  180/ 16/ 20 1015.1
CAPE HENRY VA    1300   65     170/ 17/ 25 1014.1F
CHESAPEAKE LGHT  1300   53     180/ 30/ 31 1015.7F
WILLOUBY STN VA  1300   64     190/ 20/ 22 1015.7F
S CRANEY ISL VA  1300          180/ 16/ 21 1015.4F
CAPE HENRY BUOY  1328      40                N/A     4/ 6
1ST LANDING BUOY 1400   62     190/ 17/ 27 1014.3F   2/ 4
OFFSHORE WE BUOY 1311      40                N/A     4/ 7   3/ 7
64NM E OF VA BCH 1350   61 54  170/ 17/ 21 1016.4F   6/ 7   2/12
DUCK PIER NC     1300   66 44  170/ 24/ 28 1015.3F
44056 DUCK FRF   1311      43                N/A     4/ 7
OREGON INLET NC  1300   62 52  160/ 14/ 18 1017.3F
HATTERAS NC      1300   67 56  160/ 16/ 24 1017.8
CAPE LOOKOUT NC  1400   66     150/ 20/ 21 1015.7F
$$


USA.gov is the U.S. government's official web portal to all federal, state and local government web resources and services.